STARLINK X (44256 NORAD) Tracking and Keplerian Element Data

This shows tracking and keplerian element data for the satellite.

Feedback or suggestion? Click here.




ElementValue
Catalog44256
NameSTARLINK X
Epoch Orbit371
Epoch Day173.91961839
Epoch Year2019
RAAN37.9033
Inclination53.0003
Eccentricity0.0002134
Argument of Perigee101.2388
Mean Anonmoly258.884
Mean Motion15.05403844
Decay Rate1.073E-05
L11 44256U 19029X 19173.91961839 .00001073 00000-0 93231-4 0 9992
L22 44256 53.0003 37.9033 0002134 101.2388 258.8840 15.05403844 3712

Live tracking and technical data element details for STARLINK X (NORAD 44256). STARLINK X can be tracked NOW for your location showing map with azimuth and elevation plus other details from your city location.

Track the satellite on the map from your city or location and see movement details for azimuth, elevation, latitude, longitude, range, height, and movement on the map or in text.







IsCatalogInMostPopularTable: catalog: 44256, numindb: 33
Update: records affected: 1



GetName: 44256 STARLINK X

Hit Count: updated at: Sun, 21 Jul 2019 21:22:15 GMT